Time,TemperatureF,DewpointF,PressureIn,WindDirection,WindDirectionDegrees,WindSpeedMPH,WindSpeedGustMPH,Humidity,HourlyPrecipIn,Conditions,Clouds,dailyrainin,SolarRadiationWatts/m^2,SoftwareType,DateUTC
2013-07-22 00:00:00,75.4,71.6,29.59,WNW,282,6.0,8.0,88,0.00,,---,0.05,0.00,VWS V14.01,2013-07-22 05:00:00,
2013-07-22 00:03:00,75.4,71.6,29.59,WSW,257,6.0,8.0,88,0.00,,---,0.00,0.00,VWS V14.01,2013-07-22 05:03:00,
2013-07-22 00:05:00,75.4,71.6,29.59,NNW,346,5.0,8.0,88,0.00,,---,0.00,0.00,VWS V14.01,2013-07-22 05:05:00,
2013-07-22 00:09:00,75.4,71.6,29.59,SW,216,6.0,7.0,88,0.00,,---,0.00,0.00,VWS V14.01,2013-07-22 05:09:00,
2013-07-22 00:10:00,75.3,71.5,29.59,North,0,6.0,7.0,88,0.00,,---,0.00,0.00,VWS V14.01,2013-07-22 05:10:00,
2013-07-22 00:14:00,75.4,71.9,29.59,North,0,7.0,7.0,89,0.00,,---,0.00,0.00,VWS V14.01,2013-07-22 05:14:00,
2013-07-22 00:15:00,75.4,71.9,29.59,North,353,6.0,8.0,89,0.00,,---,0.00,0.00,VWS V14.01,2013-07-22 05:15:00,
2013-07-22 00:19:00,75.4,71.9,29.59,WNW,289,6.0,8.0,89,0.00,,---,0.00,0.00,VWS V14.01,2013-07-22 05:19:00,
2013-07-22 00:20:00,75.4,71.9,29.59,West,272,7.0,8.0,89,0.00,,---,0.00,0.00,VWS V14.01,2013-07-22 05:20:00,
2013-07-22 00:24:00,75.4,71.9,29.59,NW,308,5.0,8.0,89,0.00,,---,0.00,0.00,VWS V14.01,2013-07-22 05:24:00,
2013-07-22 00:25:00,75.4,71.9,29.59,North,352,7.0,8.0,89,0.00,,---,0.00,0.00,VWS V14.01,2013-07-22 05:25:00,
2013-07-22 00:29:00,75.4,71.9,29.59,NW,320,7.0,8.0,89,0.00,,---,0.00,0.00,VWS V14.01,2013-07-22 05:29:00,
2013-07-22 00:30:00,75.4,71.9,29.59,NW,305,6.0,8.0,89,0.00,,---,0.00,0.00,VWS V14.01,2013-07-22 05:30:00,
2013-07-22 00:34:00,75.3,71.8,29.59,WNW,295,8.0,10.0,89,0.00,,---,0.00,0.00,VWS V14.01,2013-07-22 05:34:00,
2013-07-22 00:35:00,75.3,71.8,29.59,North,356,8.0,10.0,89,0.00,,---,0.00,0.00,VWS V14.01,2013-07-22 05:35:00,
2013-07-22 00:39:00,75.1,71.6,29.59,NW,309,8.0,8.0,89,0.00,,---,0.00,0.00,VWS V14.01,2013-07-22 05:39:00,
2013-07-22 00:40:00,75.1,71.6,29.59,WNW,298,7.0,9.0,89,0.00,,---,0.00,0.00,VWS V14.01,2013-07-22 05:40:00,
2013-07-22 00:44:00,75.1,72.0,29.59,North,354,7.0,8.0,90,0.00,,---,0.00,0.00,VWS V14.01,2013-07-22 05:44:00,
2013-07-22 00:45:00,75.1,71.6,29.59,West,268,7.0,8.0,89,0.00,,---,0.00,0.00,VWS V14.01,2013-07-22 05:45:00,
2013-07-22 00:49:00,75.1,72.0,29.59,NW,313,8.0,10.0,90,0.00,,---,0.00,0.00,VWS V14.01,2013-07-22 05:49:00,
2013-07-22 00:50:00,75.1,72.0,29.59,SE,128,9.0,10.0,90,0.00,,---,0.00,0.00,VWS V14.01,2013-07-22 05:50:00,
2013-07-22 00:54:00,75.1,72.0,29.59,NNW,347,8.0,10.0,90,0.00,,---,0.00,0.00,VWS V14.01,2013-07-22 05:54:00,
2013-07-22 00:55:00,74.9,71.8,29.59,North,354,8.0,10.0,90,0.00,,---,0.00,0.00,VWS V14.01,2013-07-22 05:55:00,
2013-07-22 00:59:00,74.9,71.8,29.59,WNW,282,6.0,10.0,90,0.00,,---,0.00,0.00,VWS V14.01,2013-07-22 05:59:00,
2013-07-22 01:00:00,74.9,71.8,29.59,North,0,7.0,10.0,90,0.00,,---,0.00,0.00,VWS V14.01,2013-07-22 06:00:00,
2013-07-22 01:04:00,74.7,71.9,29.59,North,349,7.0,9.0,91,0.00,,---,0.00,0.00,VWS V14.01,2013-07-22 06:04:00,
2013-07-22 01:05:00,74.7,71.9,29.59,NNW,344,7.0,9.0,91,0.00,,---,0.00,0.00,VWS V14.01,2013-07-22 06:05:00,
2013-07-22 01:09:00,74.7,71.9,29.59,North,0,4.0,7.0,91,0.00,,---,0.00,0.00,VWS V14.01,2013-07-22 06:09:00,
2013-07-22 01:10:00,74.7,71.9,29.59,North,0,4.0,7.0,91,0.00,,---,0.00,0.00,VWS V14.01,2013-07-22 06:10:00,
2013-07-22 01:15:00,74.9,72.1,29.58,North,359,5.0,8.0,91,0.00,,---,0.00,0.00,VWS V14.01,2013-07-22 06:15:00,
2013-07-22 01:20:00,74.9,72.1,29.58,North,353,7.0,10.0,91,0.00,,---,0.00,0.00,VWS V14.01,2013-07-22 06:20:00,
2013-07-22 01:25:00,74.7,72.2,29.58,North,353,6.0,10.0,92,0.00,,---,0.00,0.00,VWS V14.01,2013-07-22 06:25:00,
2013-07-22 01:30:00,74.7,72.2,29.58,NNW,344,7.0,11.0,92,0.00,,---,0.00,0.00,VWS V14.01,2013-07-22 06:30:00,
2013-07-22 01:35:00,74.7,72.2,29.58,North,349,8.0,10.0,92,0.00,,---,0.00,0.00,VWS V14.01,2013-07-22 06:35:00,
2013-07-22 01:40:00,74.7,72.6,29.58,North,353,11.0,11.0,93,0.00,,---,0.00,0.00,VWS V14.01,2013-07-22 06:40:00,
2013-07-22 01:45:00,74.7,72.6,29.57,West,275,7.0,11.0,93,0.00,,---,0.00,0.00,VWS V14.01,2013-07-22 06:45:00,
2013-07-22 01:50:00,74.7,72.6,29.57,North,0,11.0,11.0,93,0.00,,---,0.00,0.00,VWS V14.01,2013-07-22 06:50:00,
2013-07-22 01:55:00,74.9,72.7,29.57,NNW,346,12.0,13.0,93,0.00,,---,0.00,0.00,VWS V14.01,2013-07-22 06:55:00,
2013-07-22 02:00:00,74.9,73.1,29.56,North,352,10.0,11.0,94,0.00,,---,0.00,0.00,VWS V14.01,2013-07-22 07:00:00,
2013-07-22 02:05:00,74.9,73.1,29.56,NNW,347,10.0,12.0,94,0.00,,---,0.00,0.00,VWS V14.01,2013-07-22 07:05:00,
2013-07-22 02:10:00,74.9,73.1,29.56,North,0,6.0,6.0,94,0.00,,---,0.00,0.00,VWS V14.01,2013-07-22 07:10:00,
2013-07-22 02:15:00,74.9,73.1,29.55,NNW,343,6.0,7.0,94,0.00,,---,0.00,0.00,VWS V14.01,2013-07-22 07:15:00,
2013-07-22 02:20:00,74.7,72.9,29.55,NNW,330,6.0,6.0,94,0.00,,---,0.00,0.00,VWS V14.01,2013-07-22 07:20:00,
2013-07-22 02:25:00,74.7,72.9,29.55,North,359,7.0,10.0,94,0.00,,---,0.00,0.00,VWS V14.01,2013-07-22 07:25:00,
2013-07-22 02:26:00,74.7,72.9,29.55,North,354,7.0,7.0,94,0.00,,---,0.00,0.00,VWS V14.01,2013-07-22 07:26:00,
2013-07-22 02:30:00,74.7,72.9,29.55,NNW,347,6.0,8.0,94,0.00,,---,0.00,0.00,VWS V14.01,2013-07-22 07:30:00,
2013-07-22 02:31:00,74.7,72.9,29.55,NNW,343,7.0,7.0,94,0.00,,---,0.00,0.00,VWS V14.01,2013-07-22 07:31:00,
2013-07-22 02:35:00,74.7,72.9,29.55,North,357,5.0,8.0,94,0.00,,---,0.00,0.00,VWS V14.01,2013-07-22 07:35:00,
2013-07-22 02:36:00,74.7,72.9,29.55,North,0,6.0,7.0,94,0.00,,---,0.00,0.00,VWS V14.01,2013-07-22 07:36:00,
2013-07-22 02:40:00,74.7,72.9,29.55,North,356,6.0,7.0,94,0.00,,---,0.00,0.00,VWS V14.01,2013-07-22 07:40:00,
2013-07-22 02:41:00,74.7,73.2,29.55,North,357,5.0,7.0,95,0.00,,---,0.00,0.00,VWS V14.01,2013-07-22 07:41:00,
2013-07-22 02:45:00,74.7,73.2,29.55,NNW,329,6.0,8.0,95,0.00,,---,0.00,0.00,VWS V14.01,2013-07-22 07:45:00,
2013-07-22 02:46:00,74.7,73.2,29.55,North,349,3.0,6.0,95,0.00,,---,0.00,0.00,VWS V14.01,2013-07-22 07:46:00,
2013-07-22 02:50:00,74.6,73.1,29.55,NNW,346,4.0,7.0,95,0.00,,---,0.00,0.00,VWS V14.01,2013-07-22 07:50:00,
2013-07-22 02:51:00,74.6,73.1,29.55,North,0,6.0,7.0,95,0.00,,---,0.00,0.00,VWS V14.01,2013-07-22 07:51:00,
2013-07-22 02:55:00,74.6,73.1,29.55,North,0,5.0,8.0,95,0.00,,---,0.00,0.00,VWS V14.01,2013-07-22 07:55:00,
2013-07-22 02:56:00,74.6,73.1,29.55,North,0,4.0,6.0,95,0.00,,---,0.00,0.00,VWS V14.01,2013-07-22 07:56:00,
2013-07-22 03:00:00,74.6,73.1,29.54,North,353,3.0,11.0,95,0.00,,---,0.00,0.00,VWS V14.01,2013-07-22 08:00:00,
2013-07-22 03:01:00,74.6,73.1,29.54,North,0,6.0,7.0,95,0.00,,---,0.00,0.00,VWS V14.01,2013-07-22 08:01:00,
2013-07-22 03:05:00,74.6,73.1,29.54,North,0,5.0,8.0,95,0.00,,---,0.00,0.00,VWS V14.01,2013-07-22 08:05:00,
2013-07-22 03:06:00,74.6,73.1,29.54,NNW,343,5.0,8.0,95,0.00,,---,0.00,0.00,VWS V14.01,2013-07-22 08:06:00,
2013-07-22 03:10:00,74.6,73.1,29.54,NNW,343,6.0,9.0,95,0.00,,---,0.00,0.00,VWS V14.01,2013-07-22 08:10:00,
2013-07-22 03:11:00,74.6,73.1,29.54,North,356,6.0,8.0,95,0.00,,---,0.00,0.00,VWS V14.01,2013-07-22 08:11:00,
2013-07-22 03:15:00,74.6,73.1,29.54,North,359,8.0,10.0,95,0.00,,---,0.00,0.00,VWS V14.01,2013-07-22 08:15:00,
2013-07-22 03:16:00,74.6,73.1,29.54,North,359,8.0,9.0,95,0.00,,---,0.00,0.00,VWS V14.01,2013-07-22 08:16:00,
2013-07-22 03:20:00,74.4,72.9,29.54,North,0,7.0,10.0,95,0.00,,---,0.00,0.00,VWS V14.01,2013-07-22 08:20:00,
2013-07-22 03:21:00,74.4,72.9,29.54,North,0,6.0,8.0,95,0.00,,---,0.00,0.00,VWS V14.01,2013-07-22 08:21:00,
2013-07-22 03:25:00,74.2,72.7,29.54,North,0,7.0,8.0,95,0.00,,---,0.00,0.00,VWS V14.01,2013-07-22 08:25:00,
2013-07-22 03:26:00,74.2,72.7,29.54,NNW,342,6.0,8.0,95,0.00,,---,0.00,0.00,VWS V14.01,2013-07-22 08:26:00,
2013-07-22 03:30:00,74.0,72.5,29.54,North,353,7.0,8.0,95,0.00,,---,0.00,0.00,VWS V14.01,2013-07-22 08:30:00,
2013-07-22 03:31:00,74.0,72.5,29.54,North,352,7.0,7.0,95,0.00,,---,0.00,0.00,VWS V14.01,2013-07-22 08:31:00,
2013-07-22 03:35:00,74.0,72.5,29.54,North,0,6.0,8.0,95,0.00,,---,0.00,0.00,VWS V14.01,2013-07-22 08:35:00,
2013-07-22 03:37:00,74.0,72.5,29.54,NNW,344,7.0,8.0,95,0.00,,---,0.00,0.00,VWS V14.01,2013-07-22 08:37:00,
2013-07-22 03:40:00,74.0,72.8,29.54,North,0,7.0,8.0,96,0.00,,---,0.00,0.00,VWS V14.01,2013-07-22 08:40:00,
2013-07-22 03:42:00,74.0,72.8,29.54,North,0,8.0,8.0,96,0.00,,---,0.00,0.00,VWS V14.01,2013-07-22 08:42:00,
2013-07-22 03:45:00,74.0,72.8,29.54,North,0,6.0,8.0,96,0.00,,---,0.00,0.00,VWS V14.01,2013-07-22 08:45:00,
2013-07-22 03:47:00,74.0,72.8,29.54,North,356,6.0,8.0,96,0.00,,---,0.00,0.00,VWS V14.01,2013-07-22 08:47:00,
2013-07-22 03:50:00,73.9,72.7,29.54,NNW,344,6.0,8.0,96,0.00,,---,0.00,0.00,VWS V14.01,2013-07-22 08:50:00,
2013-07-22 03:52:00,73.9,72.7,29.54,NNW,346,6.0,8.0,96,0.00,,---,0.00,0.00,VWS V14.01,2013-07-22 08:52:00,
2013-07-22 03:55:00,73.9,72.7,29.54,North,357,6.0,8.0,96,0.00,,---,0.00,0.00,VWS V14.01,2013-07-22 08:55:00,
2013-07-22 03:57:00,73.9,72.7,29.54,SW,234,6.0,8.0,96,0.00,,---,0.00,0.00,VWS V14.01,2013-07-22 08:57:00,
2013-07-22 04:00:00,73.9,72.7,29.54,NNW,344,7.0,8.0,96,0.00,,---,0.00,0.00,VWS V14.01,2013-07-22 09:00:00,
2013-07-22 04:02:00,73.9,72.7,29.54,NNW,346,7.0,7.0,96,0.00,,---,0.00,0.00,VWS V14.01,2013-07-22 09:02:00,
2013-07-22 04:05:00,73.7,72.5,29.54,SSE,160,7.0,8.0,96,0.00,,---,0.00,0.00,VWS V14.01,2013-07-22 09:05:00,
2013-07-22 04:07:00,73.7,72.5,29.54,North,353,6.0,7.0,96,0.00,,---,0.00,0.00,VWS V14.01,2013-07-22 09:07:00,
2013-07-22 04:10:00,73.5,72.3,29.54,West,265,5.0,7.0,96,0.00,,---,0.00,0.00,VWS V14.01,2013-07-22 09:10:00,
2013-07-22 04:12:00,73.5,72.3,29.54,North,354,6.0,6.0,96,0.00,,---,0.00,0.00,VWS V14.01,2013-07-22 09:12:00,
2013-07-22 04:15:00,73.5,72.3,29.53,North,353,4.0,6.0,96,0.00,,---,0.00,0.00,VWS V14.01,2013-07-22 09:15:00,
2013-07-22 04:17:00,73.3,72.1,29.53,North,353,5.0,6.0,96,0.00,,---,0.00,0.00,VWS V14.01,2013-07-22 09:17:00,
2013-07-22 04:20:00,73.3,72.1,29.53,North,0,6.0,7.0,96,0.00,,---,0.00,0.00,VWS V14.01,2013-07-22 09:20:00,
2013-07-22 04:22:00,73.2,72.0,29.53,North,0,6.0,7.0,96,0.00,,---,0.00,0.00,VWS V14.01,2013-07-22 09:22:00,
2013-07-22 04:25:00,73.2,72.0,29.53,SSW,210,5.0,7.0,96,0.00,,---,0.00,0.00,VWS V14.01,2013-07-22 09:25:00,
2013-07-22 04:27:00,73.2,72.0,29.53,North,356,5.0,5.0,96,0.00,,---,0.00,0.00,VWS V14.01,2013-07-22 09:27:00,
2013-07-22 04:30:00,73.2,72.0,29.53,WNW,288,5.0,7.0,96,0.00,,---,0.00,0.00,VWS V14.01,2013-07-22 09:30:00,
2013-07-22 04:33:00,73.2,72.0,29.53,North,0,7.0,8.0,96,0.00,,---,0.00,0.00,VWS V14.01,2013-07-22 09:33:00,
2013-07-22 04:35:00,73.0,71.8,29.53,North,0,6.0,8.0,96,0.00,,---,0.00,0.00,VWS V14.01,2013-07-22 09:35:00,
2013-07-22 04:38:00,73.0,71.8,29.53,North,0,6.0,8.0,96,0.00,,---,0.00,0.00,VWS V14.01,2013-07-22 09:38:00,
2013-07-22 04:40:00,72.8,71.9,29.53,NNW,337,8.0,8.0,97,0.00,,---,0.00,0.00,VWS V14.01,2013-07-22 09:40:00,
2013-07-22 04:43:00,72.8,71.9,29.53,SE,144,6.0,8.0,97,0.00,,---,0.00,0.00,VWS V14.01,2013-07-22 09:43:00,
2013-07-22 04:45:00,72.8,71.9,29.53,North,0,5.0,8.0,97,0.00,,---,0.00,0.00,VWS V14.01,2013-07-22 09:45:00,
2013-07-22 04:48:00,73.0,72.1,29.53,SSW,210,6.0,7.0,97,0.00,,---,0.00,0.00,VWS V14.01,2013-07-22 09:48:00,
2013-07-22 04:50:00,73.0,72.1,29.53,NNW,344,7.0,8.0,97,0.00,,---,0.00,0.00,VWS V14.01,2013-07-22 09:50:00,
2013-07-22 04:53:00,73.0,72.1,29.53,North,0,8.0,9.0,97,0.00,,---,0.00,0.00,VWS V14.01,2013-07-22 09:53:00,
2013-07-22 04:55:00,73.0,72.1,29.53,South,184,8.0,10.0,97,0.00,,---,0.00,0.00,VWS V14.01,2013-07-22 09:55:00,
2013-07-22 04:58:00,73.0,72.1,29.53,NNW,343,8.0,8.0,97,0.00,,---,0.00,0.00,VWS V14.01,2013-07-22 09:58:00,
2013-07-22 05:00:00,72.8,71.9,29.53,NW,318,7.0,8.0,97,0.00,,---,0.00,0.00,VWS V14.01,2013-07-22 10:00:00,
2013-07-22 05:03:00,72.8,71.9,29.53,South,174,7.0,8.0,97,0.00,,---,0.00,0.00,VWS V14.01,2013-07-22 10:03:00,
2013-07-22 05:05:00,72.8,71.9,29.53,NNW,342,8.0,8.0,97,0.00,,---,0.00,0.00,VWS V14.01,2013-07-22 10:05:00,
2013-07-22 05:08:00,72.8,71.9,29.53,North,0,5.0,10.0,97,0.00,,---,0.00,0.00,VWS V14.01,2013-07-22 10:08:00,
2013-07-22 05:10:00,72.8,71.9,29.53,North,0,7.0,10.0,97,0.00,,---,0.00,0.00,VWS V14.01,2013-07-22 10:10:00,
2013-07-22 05:13:00,72.8,71.9,29.53,NNW,346,6.0,8.0,97,0.00,,---,0.00,0.00,VWS V14.01,2013-07-22 10:13:00,
2013-07-22 05:15:00,72.8,71.9,29.53,North,0,6.0,8.0,97,0.00,,---,0.00,0.00,VWS V14.01,2013-07-22 10:15:00,
2013-07-22 05:18:00,72.7,71.8,29.53,North,0,5.0,7.0,97,0.00,,---,0.00,0.00,VWS V14.01,2013-07-22 10:18:00,
2013-07-22 05:20:00,72.7,71.8,29.53,South,174,6.0,7.0,97,0.00,,---,0.00,0.00,VWS V14.01,2013-07-22 10:20:00,
2013-07-22 05:23:00,72.7,71.8,29.53,WSW,251,3.0,6.0,97,0.00,,---,0.00,0.00,VWS V14.01,2013-07-22 10:23:00,
2013-07-22 05:25:00,72.7,71.8,29.53,North,350,3.0,6.0,97,0.00,,---,0.00,0.00,VWS V14.01,2013-07-22 10:25:00,
2013-07-22 05:28:00,72.7,71.8,29.53,WNW,285,3.0,5.0,97,0.00,,---,0.00,0.00,VWS V14.01,2013-07-22 10:28:00,
2013-07-22 05:30:00,72.7,71.8,29.53,North,349,2.0,5.0,97,0.00,,---,0.00,0.00,VWS V14.01,2013-07-22 10:30:00,
2013-07-22 05:34:00,72.7,71.8,29.53,North,352,6.0,6.0,97,0.00,,---,0.00,0.00,VWS V14.01,2013-07-22 10:34:00,
2013-07-22 05:35:00,72.5,71.6,29.53,WSW,243,6.0,6.0,97,0.00,,---,0.00,0.00,VWS V14.01,2013-07-22 10:35:00,
2013-07-22 05:39:00,72.5,71.6,29.53,SSE,152,5.0,7.0,97,0.00,,---,0.00,0.00,VWS V14.01,2013-07-22 10:39:00,
2013-07-22 05:40:00,72.5,71.6,29.53,North,352,2.0,7.0,97,0.00,,---,0.00,0.00,VWS V14.01,2013-07-22 10:40:00,
2013-07-22 05:44:00,72.3,71.4,29.53,North,0,3.0,3.0,97,0.00,,---,0.00,0.00,VWS V14.01,2013-07-22 10:44:00,
2013-07-22 05:45:00,72.3,71.4,29.53,NNW,344,3.0,5.0,97,0.00,,---,0.00,0.00,VWS V14.01,2013-07-22 10:45:00,
2013-07-22 05:49:00,72.3,71.4,29.53,NNW,343,3.0,5.0,97,0.00,,---,0.00,0.00,VWS V14.01,2013-07-22 10:49:00,
2013-07-22 05:50:00,72.3,71.4,29.53,NNW,343,4.0,5.0,97,0.00,,---,0.00,0.00,VWS V14.01,2013-07-22 10:50:00,
2013-07-22 05:54:00,72.1,71.2,29.53,NNW,344,2.0,5.0,97,0.00,,---,0.00,0.00,VWS V14.01,2013-07-22 10:54:00,
2013-07-22 05:55:00,72.1,71.2,29.53,North,349,2.0,5.0,97,0.00,,---,0.00,0.00,VWS V14.01,2013-07-22 10:55:00,
2013-07-22 05:59:00,72.1,71.2,29.53,North,357,5.0,5.0,97,0.00,,---,0.00,0.00,VWS V14.01,2013-07-22 10:59:00,
2013-07-22 06:00:00,72.1,71.2,29.54,North,359,3.0,5.0,97,0.00,,---,0.00,0.00,VWS V14.01,2013-07-22 11:00:00,
2013-07-22 06:04:00,72.0,71.1,29.54,NNW,344,5.0,6.0,97,0.00,,---,0.00,0.00,VWS V14.01,2013-07-22 11:04:00,
2013-07-22 06:05:00,72.0,71.4,29.54,North,0,4.0,6.0,98,0.00,,---,0.00,0.00,VWS V14.01,2013-07-22 11:05:00,
2013-07-22 06:09:00,71.8,70.9,29.54,NNW,342,3.0,5.0,97,0.00,,---,0.00,0.00,VWS V14.01,2013-07-22 11:09:00,
2013-07-22 06:10:00,71.8,70.9,29.54,North,353,2.0,5.0,97,0.00,,---,0.00,0.00,VWS V14.01,2013-07-22 11:10:00,
2013-07-22 06:14:00,71.8,71.2,29.54,SE,141,3.0,6.0,98,0.00,,---,0.00,0.00,VWS V14.01,2013-07-22 11:14:00,
2013-07-22 06:15:00,71.8,71.2,29.54,ESE,123,4.0,6.0,98,0.00,,---,0.00,0.00,VWS V14.01,2013-07-22 11:15:00,
2013-07-22 06:19:00,72.0,71.4,29.54,East,82,3.0,6.0,98,0.00,,---,0.00,0.00,VWS V14.01,2013-07-22 11:19:00,
2013-07-22 06:20:00,72.0,71.4,29.54,South,181,3.0,6.0,98,0.00,,---,0.00,0.00,VWS V14.01,2013-07-22 11:20:00,
2013-07-22 06:24:00,72.0,71.4,29.54,NNW,339,3.0,5.0,98,0.00,,---,0.00,0.00,VWS V14.01,2013-07-22 11:24:00,
2013-07-22 06:25:00,71.8,71.2,29.54,North,353,6.0,6.0,98,0.00,,---,0.00,0.00,VWS V14.01,2013-07-22 11:25:00,
2013-07-22 06:29:00,71.8,71.2,29.54,NNW,339,3.0,6.0,98,0.00,,---,0.00,0.00,VWS V14.01,2013-07-22 11:29:00,
2013-07-22 06:30:00,71.8,71.2,29.54,NNW,337,2.0,6.0,98,0.00,,---,0.00,0.00,VWS V14.01,2013-07-22 11:30:00,
2013-07-22 06:34:00,72.0,71.4,29.54,SW,227,2.0,5.0,98,0.00,,---,0.00,7.00,VWS V14.01,2013-07-22 11:34:00,
2013-07-22 06:35:00,72.0,71.4,29.54,North,352,3.0,5.0,98,0.00,,---,0.00,12.00,VWS V14.01,2013-07-22 11:35:00,
2013-07-22 06:39:00,72.1,71.5,29.54,East,89,5.0,6.0,98,0.00,,---,0.00,21.00,VWS V14.01,2013-07-22 11:39:00,
2013-07-22 06:40:00,72.1,71.5,29.54,SE,141,5.0,6.0,98,0.00,,---,0.00,21.00,VWS V14.01,2013-07-22 11:40:00,
2013-07-22 06:45:00,72.1,71.8,29.55,North,0,1.0,6.0,99,0.00,,---,0.00,26.00,VWS V14.01,2013-07-22 11:45:00,
2013-07-22 06:50:00,72.1,71.8,29.55,North,0,0.0,3.0,99,0.00,,---,0.00,39.00,VWS V14.01,2013-07-22 11:50:00,
2013-07-22 06:55:00,72.1,71.8,29.55,North,0,0.0,0.0,99,0.00,,---,0.00,55.00,VWS V14.01,2013-07-22 11:55:00,
2013-07-22 07:00:00,72.1,71.8,29.55,NW,315,0.0,0.0,99,0.00,,---,0.00,81.00,VWS V14.01,2013-07-22 12:00:00,
2013-07-22 07:05:00,72.3,72.0,29.55,North,354,0.0,0.0,99,0.00,,---,0.00,104.00,VWS V14.01,2013-07-22 12:05:00,
2013-07-22 07:10:00,72.7,72.4,29.55,North,352,5.0,6.0,99,0.00,,---,0.00,114.00,VWS V14.01,2013-07-22 12:10:00,
2013-07-22 07:15:00,73.0,72.7,29.55,South,184,0.0,6.0,99,0.00,,---,0.00,132.00,VWS V14.01,2013-07-22 12:15:00,
2013-07-22 07:20:00,73.3,73.0,29.55,WNW,287,0.0,5.0,99,0.00,,---,0.00,148.00,VWS V14.01,2013-07-22 12:20:00,
2013-07-22 07:25:00,73.7,73.4,29.55,NNW,339,0.0,4.0,99,0.00,,---,0.00,158.00,VWS V14.01,2013-07-22 12:25:00,
2013-07-22 07:30:00,74.0,73.4,29.54,SSW,210,0.0,0.0,98,0.00,,---,0.00,128.00,VWS V14.01,2013-07-22 12:30:00,
2013-07-22 07:35:00,74.0,73.4,29.54,North,0,3.0,5.0,98,0.00,,---,0.00,109.00,VWS V14.01,2013-07-22 12:35:00,
2013-07-22 07:40:00,74.0,73.4,29.54,North,0,6.0,7.0,98,0.00,,---,0.00,181.00,VWS V14.01,2013-07-22 12:40:00,
2013-07-22 07:45:00,74.2,73.6,29.54,North,0,6.0,8.0,98,0.00,,---,0.00,227.00,VWS V14.01,2013-07-22 12:45:00,
2013-07-22 07:50:00,74.6,74.0,29.54,WSW,258,5.0,7.0,98,0.00,,---,0.00,190.00,VWS V14.01,2013-07-22 12:50:00,
2013-07-22 07:55:00,74.7,74.1,29.54,NNW,340,5.0,7.0,98,0.00,,---,0.00,202.00,VWS V14.01,2013-07-22 12:55:00,
2013-07-22 08:00:00,74.9,74.3,29.53,NNW,346,7.0,7.0,98,0.00,,---,0.00,202.00,VWS V14.01,2013-07-22 13:00:00,
2013-07-22 08:05:00,75.1,74.2,29.53,North,0,7.0,7.0,97,0.00,,---,0.00,194.00,VWS V14.01,2013-07-22 13:05:00,
2013-07-22 08:10:00,75.1,73.9,29.53,North,0,6.0,8.0,96,0.00,,---,0.00,218.00,VWS V14.01,2013-07-22 13:10:00,
2013-07-22 08:15:00,75.6,74.4,29.55,NNW,329,4.0,12.0,96,0.00,,---,0.00,278.00,VWS V14.01,2013-07-22 13:15:00,
2013-07-22 08:20:00,75.8,74.3,29.55,West,272,5.0,7.0,95,0.00,,---,0.00,230.00,VWS V14.01,2013-07-22 13:20:00,
2013-07-22 08:25:00,76.3,74.4,29.55,North,354,6.0,13.0,94,0.00,,---,0.00,239.00,VWS V14.01,2013-07-22 13:25:00,
2013-07-22 08:26:00,76.3,74.4,29.55,NNW,335,6.0,8.0,94,0.00,,---,0.00,239.00,VWS V14.01,2013-07-22 13:26:00,
2013-07-22 08:30:00,76.7,74.5,29.56,NNW,342,9.0,11.0,93,0.00,,---,0.00,334.00,VWS V14.01,2013-07-22 13:30:00,
2013-07-22 08:31:00,76.7,74.5,29.56,North,350,10.0,10.0,93,0.00,,---,0.00,334.00,VWS V14.01,2013-07-22 13:31:00,
2013-07-22 08:35:00,76.7,74.2,29.56,North,359,9.0,13.0,92,0.00,,---,0.00,211.00,VWS V14.01,2013-07-22 13:35:00,
2013-07-22 08:36:00,76.7,74.2,29.56,NNW,342,7.0,12.0,92,0.00,,---,0.00,211.00,VWS V14.01,2013-07-22 13:36:00,
2013-07-22 08:40:00,76.7,73.6,29.56,WNW,288,8.0,12.0,90,0.00,,---,0.00,204.00,VWS V14.01,2013-07-22 13:40:00,
2013-07-22 08:41:00,76.5,73.3,29.56,NW,320,8.0,8.0,90,0.00,,---,0.00,220.00,VWS V14.01,2013-07-22 13:41:00,
2013-07-22 08:45:00,76.7,73.6,29.58,North,0,8.0,12.0,90,0.00,,---,0.00,408.00,VWS V14.01,2013-07-22 13:45:00,
2013-07-22 08:46:00,76.7,73.6,29.58,NNW,337,12.0,12.0,90,0.00,,---,0.00,408.00,VWS V14.01,2013-07-22 13:46:00,
2013-07-22 08:50:00,76.8,73.0,29.58,NNW,337,7.0,13.0,88,0.00,,---,0.00,273.00,VWS V14.01,2013-07-22 13:50:00,
2013-07-22 08:51:00,76.8,73.3,29.58,NNW,336,7.0,12.0,89,0.00,,---,0.00,271.00,VWS V14.01,2013-07-22 13:51:00,
2013-07-22 08:55:00,76.8,73.0,29.58,North,352,12.0,15.0,88,0.00,,---,0.00,264.00,VWS V14.01,2013-07-22 13:55:00,
2013-07-22 08:56:00,76.8,73.0,29.58,North,0,12.0,13.0,88,0.00,,---,0.00,285.00,VWS V14.01,2013-07-22 13:56:00,
2013-07-22 09:00:00,77.0,72.8,29.59,NW,308,12.0,14.0,87,0.00,,---,0.00,398.00,VWS V14.01,2013-07-22 14:00:00,
2013-07-22 09:01:00,77.0,72.5,29.59,WNW,298,7.0,13.0,86,0.00,,---,0.00,398.00,VWS V14.01,2013-07-22 14:01:00,
2013-07-22 09:05:00,77.2,72.7,29.59,WNW,285,12.0,16.0,86,0.00,,---,0.00,361.00,VWS V14.01,2013-07-22 14:05:00,
2013-07-22 09:06:00,77.2,72.7,29.59,NNW,330,11.0,12.0,86,0.00,,---,0.00,347.00,VWS V14.01,2013-07-22 14:06:00,
2013-07-22 09:10:00,77.4,72.5,29.59,North,350,7.0,17.0,85,0.00,,---,0.00,230.00,VWS V14.01,2013-07-22 14:10:00,
2013-07-22 09:11:00,77.4,72.5,29.59,NW,315,8.0,10.0,85,0.00,,---,0.00,311.00,VWS V14.01,2013-07-22 14:11:00,
2013-07-22 09:15:00,77.4,72.2,29.58,WNW,291,8.0,14.0,84,0.00,,---,0.00,401.00,VWS V14.01,2013-07-22 14:15:00,
2013-07-22 09:16:00,77.4,72.2,29.58,WNW,299,8.0,11.0,84,0.00,,---,0.00,144.00,VWS V14.01,2013-07-22 14:16:00,
2013-07-22 09:20:00,77.2,72.0,29.58,WNW,288,7.0,13.0,84,0.00,,---,0.00,132.00,VWS V14.01,2013-07-22 14:20:00,
2013-07-22 09:21:00,77.2,72.0,29.58,WNW,289,9.0,11.0,84,0.00,,---,0.00,83.00,VWS V14.01,2013-07-22 14:21:00,
2013-07-22 09:25:00,76.8,71.9,29.58,NW,313,12.0,13.0,85,0.00,,---,0.00,77.00,VWS V14.01,2013-07-22 14:25:00,
2013-07-22 09:26:00,76.8,71.9,29.58,WNW,298,5.0,12.0,85,0.00,,---,0.00,77.00,VWS V14.01,2013-07-22 14:26:00,
2013-07-22 09:30:00,76.8,72.3,29.59,North,354,9.0,13.0,86,0.00,,---,0.00,143.00,VWS V14.01,2013-07-22 14:30:00,
2013-07-22 09:32:00,76.8,72.3,29.59,North,352,11.0,11.0,86,0.00,,---,0.00,171.00,VWS V14.01,2013-07-22 14:32:00,
2013-07-22 09:37:00,76.8,72.3,29.59,North,0,6.0,8.0,86,0.00,,---,0.00,211.00,VWS V14.01,2013-07-22 14:37:00,
2013-07-22 09:40:00,76.8,72.3,29.59,North,0,4.0,8.0,86,0.00,,---,0.00,296.00,VWS V14.01,2013-07-22 14:40:00,
2013-07-22 09:42:00,76.8,72.6,29.59,North,356,7.0,7.0,87,0.00,,---,0.00,426.00,VWS V14.01,2013-07-22 14:42:00,
2013-07-22 09:45:00,77.2,73.0,29.57,North,0,6.0,7.0,87,0.00,,---,0.00,528.00,VWS V14.01,2013-07-22 14:45:00,
2013-07-22 09:47:00,77.4,73.2,29.57,North,352,6.0,8.0,87,0.00,,---,0.00,528.00,VWS V14.01,2013-07-22 14:47:00,
2013-07-22 09:50:00,77.6,73.1,29.57,WNW,301,2.0,11.0,86,0.00,,---,0.00,565.00,VWS V14.01,2013-07-22 14:50:00,
2013-07-22 09:52:00,77.7,73.2,29.57,North,357,7.0,7.0,86,0.00,,---,0.00,637.00,VWS V14.01,2013-07-22 14:52:00,
2013-07-22 09:55:00,77.9,73.0,29.57,West,272,3.0,8.0,85,0.00,,---,0.00,677.00,VWS V14.01,2013-07-22 14:55:00,
2013-07-22 09:57:00,78.1,73.2,29.57,NNW,347,7.0,8.0,85,0.00,,---,0.00,468.00,VWS V14.01,2013-07-22 14:57:00,
2013-07-22 10:00:00,78.3,73.1,29.57,North,354,8.0,10.0,84,0.00,,---,0.00,352.00,VWS V14.01,2013-07-22 15:00:00,
2013-07-22 10:02:00,78.6,73.0,29.57,NNW,332,6.0,11.0,83,0.00,,---,0.00,347.00,VWS V14.01,2013-07-22 15:02:00,
2013-07-22 10:05:00,79.0,73.4,29.57,North,0,7.0,11.0,83,0.00,,---,0.00,289.00,VWS V14.01,2013-07-22 15:05:00,
2013-07-22 10:07:00,79.2,73.2,29.57,North,349,3.0,10.0,82,0.00,,---,0.00,283.00,VWS V14.01,2013-07-22 15:07:00,
2013-07-22 10:10:00,79.4,72.7,29.57,WNW,295,2.0,10.0,80,0.00,,---,0.00,320.00,VWS V14.01,2013-07-22 15:10:00,
2013-07-22 10:12:00,79.2,72.5,29.57,West,270,5.0,7.0,80,0.00,,---,0.00,336.00,VWS V14.01,2013-07-22 15:12:00,
2013-07-22 10:13:00,79.0,72.3,29.57,West,268,3.0,7.0,80,0.00,,---,0.00,336.00,VWS V14.01,2013-07-22 15:13:00,
2013-07-22 10:15:00,79.0,72.3,29.57,West,263,6.0,7.0,80,0.00,,---,0.00,294.00,VWS V14.01,2013-07-22 15:15:00,
2013-07-22 10:18:00,79.0,72.7,29.57,West,260,5.0,7.0,81,0.00,,---,0.00,706.00,VWS V14.01,2013-07-22 15:18:00,
2013-07-22 10:20:00,79.2,72.5,29.57,WSW,256,3.0,7.0,80,0.00,,---,0.00,818.00,VWS V14.01,2013-07-22 15:20:00,
2013-07-22 10:23:00,79.6,72.9,29.57,WSW,254,3.0,4.0,80,0.00,,---,0.00,357.00,VWS V14.01,2013-07-22 15:23:00,
2013-07-22 10:25:00,79.6,72.5,29.57,WNW,291,1.0,5.0,79,0.00,,---,0.00,267.00,VWS V14.01,2013-07-22 15:25:00,
2013-07-22 10:28:00,79.8,72.7,29.57,North,350,10.0,11.0,79,0.00,,---,0.00,259.00,VWS V14.01,2013-07-22 15:28:00,
2013-07-22 10:30:00,79.9,72.8,29.59,North,0,11.0,13.0,79,0.00,,---,0.00,264.00,VWS V14.01,2013-07-22 15:30:00,
2013-07-22 10:34:00,80.1,73.0,29.59,North,350,8.0,18.0,79,0.00,,---,0.00,350.00,VWS V14.01,2013-07-22 15:34:00,
2013-07-22 10:35:00,80.1,73.0,29.59,WNW,291,9.0,18.0,79,0.00,,---,0.00,336.00,VWS V14.01,2013-07-22 15:35:00,
2013-07-22 10:39:00,80.1,73.0,29.59,NW,309,10.0,16.0,79,0.00,,---,0.00,317.00,VWS V14.01,2013-07-22 15:39:00,
2013-07-22 10:40:00,80.1,73.0,29.59,NW,308,13.0,16.0,79,0.00,,---,0.00,348.00,VWS V14.01,2013-07-22 15:40:00,
2013-07-22 10:44:00,80.1,73.0,29.59,NW,308,13.0,18.0,79,0.00,,---,0.00,333.00,VWS V14.01,2013-07-22 15:44:00,
2013-07-22 10:45:00,80.1,73.0,29.58,West,270,6.0,18.0,79,0.00,,---,0.00,333.00,VWS V14.01,2013-07-22 15:45:00,
2013-07-22 10:49:00,79.9,72.8,29.58,WSW,250,9.0,11.0,79,0.00,,---,0.00,345.00,VWS V14.01,2013-07-22 15:49:00,
2013-07-22 10:50:00,79.9,72.8,29.58,SW,234,7.0,11.0,79,0.00,,---,0.00,345.00,VWS V14.01,2013-07-22 15:50:00,
2013-07-22 10:54:00,80.3,73.2,29.58,North,0,7.0,12.0,79,0.00,,---,0.00,882.00,VWS V14.01,2013-07-22 15:54:00,
2013-07-22 10:55:00,80.7,73.6,29.58,WNW,285,5.0,12.0,79,0.00,,---,0.00,882.00,VWS V14.01,2013-07-22 15:55:00,
2013-07-22 10:59:00,80.7,72.8,29.58,North,0,6.0,11.0,77,0.00,,---,0.00,882.00,VWS V14.01,2013-07-22 15:59:00,
2013-07-22 11:00:00,80.7,72.8,29.57,North,353,7.0,13.0,77,0.00,,---,0.00,297.00,VWS V14.01,2013-07-22 16:00:00,
2013-07-22 11:04:00,80.9,73.0,29.57,North,357,7.0,11.0,77,0.00,,---,0.00,310.00,VWS V14.01,2013-07-22 16:04:00,
2013-07-22 11:05:00,80.9,73.0,29.57,NNW,335,7.0,13.0,77,0.00,,---,0.00,366.00,VWS V14.01,2013-07-22 16:05:00,
2013-07-22 11:09:00,81.1,72.4,29.57,North,352,7.0,11.0,75,0.00,,---,0.00,540.00,VWS V14.01,2013-07-22 16:09:00,
2013-07-22 11:10:00,81.1,72.4,29.57,NNW,346,4.0,11.0,75,0.00,,---,0.00,540.00,VWS V14.01,2013-07-22 16:10:00,
2013-07-22 11:14:00,81.4,72.3,29.57,NNW,343,12.0,14.0,74,0.00,,---,0.00,104.00,VWS V14.01,2013-07-22 16:14:00,
2013-07-22 11:15:00,81.2,71.7,29.58,NNW,343,13.0,14.0,73,0.00,,---,0.00,106.00,VWS V14.01,2013-07-22 16:15:00,
2013-07-22 11:19:00,80.9,71.0,29.58,SW,217,17.0,20.0,72,0.00,,---,0.00,102.00,VWS V14.01,2013-07-22 16:19:00,
2013-07-22 11:20:00,80.7,70.8,29.58,North,0,17.0,20.0,72,0.00,,---,0.00,97.00,VWS V14.01,2013-07-22 16:20:00,
2013-07-22 11:24:00,80.5,71.1,29.58,WSW,256,12.0,25.0,73,0.00,,---,0.00,91.00,VWS V14.01,2013-07-22 16:24:00,
2013-07-22 11:25:00,80.3,71.3,29.58,NW,308,14.0,25.0,74,0.00,,---,0.00,91.00,VWS V14.01,2013-07-22 16:25:00,
2013-07-22 11:30:00,79.0,70.8,29.57,NNW,329,10.0,19.0,76,0.00,,---,0.00,88.00,VWS V14.01,2013-07-22 16:30:00,
2013-07-22 11:35:00,77.7,70.7,29.57,North,0,7.0,18.0,79,0.00,,---,0.00,104.00,VWS V14.01,2013-07-22 16:35:00,
2013-07-22 11:40:00,77.2,71.3,29.57,NNW,343,9.0,17.0,82,0.00,,---,0.00,118.00,VWS V14.01,2013-07-22 16:40:00,
2013-07-22 11:45:00,77.0,71.1,29.55,North,0,10.0,15.0,82,0.00,,---,0.00,116.00,VWS V14.01,2013-07-22 16:45:00,
2013-07-22 11:50:00,76.8,70.9,29.55,North,350,10.0,14.0,82,0.00,,---,0.00,174.00,VWS V14.01,2013-07-22 16:50:00,
2013-07-22 11:55:00,77.0,71.4,29.55,West,274,8.0,13.0,83,0.00,,---,0.00,259.00,VWS V14.01,2013-07-22 16:55:00,
2013-07-22 12:00:00,77.9,72.7,29.56,North,0,6.0,12.0,84,0.00,,---,0.00,857.00,VWS V14.01,2013-07-22 17:00:00,
2013-07-22 12:05:00,78.6,71.9,29.56,NNW,336,6.0,12.0,80,0.00,,---,0.00,850.00,VWS V14.01,2013-07-22 17:05:00,
2013-07-22 12:10:00,79.6,71.0,29.56,North,0,4.0,8.0,75,0.00,,---,0.00,857.00,VWS V14.01,2013-07-22 17:10:00,
2013-07-22 12:15:00,80.7,70.8,29.57,ENE,76,5.0,10.0,72,0.00,,---,0.00,860.00,VWS V14.01,2013-07-22 17:15:00,
2013-07-22 12:20:00,81.8,70.6,29.57,South,182,5.0,10.0,69,0.00,,---,0.00,866.00,VWS V14.01,2013-07-22 17:20:00,
2013-07-22 12:25:00,82.6,70.5,29.57,SW,226,7.0,8.0,67,0.00,,---,0.00,874.00,VWS V14.01,2013-07-22 17:25:00,
2013-07-22 12:30:00,83.4,70.4,29.55,WSW,243,6.0,7.0,65,0.00,,---,0.00,880.00,VWS V14.01,2013-07-22 17:30:00,
2013-07-22 12:35:00,84.1,70.2,29.55,North,353,6.0,8.0,63,0.00,,---,0.00,887.00,VWS V14.01,2013-07-22 17:35:00,
2013-07-22 12:36:00,84.1,70.2,29.55,North,353,6.0,6.0,63,0.00,,---,0.00,887.00,VWS V14.01,2013-07-22 17:36:00,
2013-07-22 12:40:00,84.7,70.2,29.55,North,0,10.0,11.0,62,0.00,,---,0.00,897.00,VWS V14.01,2013-07-22 17:40:00,
2013-07-22 12:41:00,84.7,70.2,29.55,North,0,7.0,10.0,62,0.00,,---,0.00,897.00,VWS V14.01,2013-07-22 17:41:00,
2013-07-22 12:45:00,85.1,69.7,29.55,North,354,9.0,10.0,60,0.00,,---,0.00,940.00,VWS V14.01,2013-07-22 17:45:00,
2013-07-22 12:46:00,85.1,69.7,29.55,North,0,7.0,9.0,60,0.00,,---,0.00,913.00,VWS V14.01,2013-07-22 17:46:00,
2013-07-22 12:50:00,85.5,70.0,29.55,North,0,8.0,10.0,60,0.00,,---,0.00,280.00,VWS V14.01,2013-07-22 17:50:00,
2013-07-22 12:51:00,85.5,69.1,29.55,NNW,347,3.0,8.0,58,0.00,,---,0.00,287.00,VWS V14.01,2013-07-22 17:51:00,
2013-07-22 12:55:00,85.5,69.1,29.55,SSE,162,1.0,8.0,58,0.00,,---,0.00,287.00,VWS V14.01,2013-07-22 17:55:00,
2013-07-22 12:56:00,85.5,69.1,29.55,NNW,344,2.0,3.0,58,0.00,,---,0.00,287.00,VWS V14.01,2013-07-22 17:56:00,
2013-07-22 13:00:00,85.9,69.9,29.55,North,349,3.0,7.0,59,0.00,,---,0.00,918.00,VWS V14.01,2013-07-22 18:00:00,
2013-07-22 13:02:00,86.1,70.1,29.55,NNW,344,2.0,5.0,59,0.00,,---,0.00,917.00,VWS V14.01,2013-07-22 18:02:00,
2013-07-22 13:05:00,86.5,69.5,29.55,SW,227,2.0,5.0,57,0.00,,---,0.00,896.00,VWS V14.01,2013-07-22 18:05:00,
2013-07-22 13:07:00,86.7,69.1,29.55,North,359,3.0,6.0,56,0.00,,---,0.00,897.00,VWS V14.01,2013-07-22 18:07:00,
2013-07-22 13:10:00,87.2,69.1,29.55,SE,144,4.0,8.0,55,0.00,,---,0.00,892.00,VWS V14.01,2013-07-22 18:10:00,
2013-07-22 13:12:00,87.4,69.3,29.55,NNW,347,0.0,6.0,55,0.00,,---,0.00,892.00,VWS V14.01,2013-07-22 18:12:00,
2013-07-22 13:15:00,88.0,69.3,29.55,South,191,0.0,6.0,54,0.00,,---,0.00,77.00,VWS V14.01,2013-07-22 18:15:00,
2013-07-22 13:17:00,88.2,69.5,29.55,North,353,1.0,5.0,54,0.00,,---,0.00,76.00,VWS V14.01,2013-07-22 18:17:00,
2013-07-22 13:20:00,88.6,69.8,29.55,SE,140,3.0,5.0,54,0.00,,---,0.00,91.00,VWS V14.01,2013-07-22 18:20:00,
2013-07-22 13:22:00,88.6,69.8,29.55,North,349,2.0,6.0,54,0.00,,---,0.00,259.00,VWS V14.01,2013-07-22 18:22:00,
2013-07-22 13:25:00,88.8,70.0,29.55,NNW,332,2.0,6.0,54,0.00,,---,0.00,183.00,VWS V14.01,2013-07-22 18:25:00,
2013-07-22 13:27:00,88.8,70.0,29.55,West,264,2.0,3.0,54,0.00,,---,0.00,183.00,VWS V14.01,2013-07-22 18:27:00,
2013-07-22 13:30:00,88.8,69.5,29.55,North,349,1.0,6.0,53,0.00,,---,0.00,107.00,VWS V14.01,2013-07-22 18:30:00,
2013-07-22 13:33:00,89.0,70.2,29.55,WSW,254,6.0,6.0,54,0.00,,---,0.00,72.00,VWS V14.01,2013-07-22 18:33:00,
2013-07-22 13:35:00,89.5,69.6,29.55,North,0,0.0,7.0,52,0.00,,---,0.00,74.00,VWS V14.01,2013-07-22 18:35:00,
2013-07-22 13:38:00,89.9,69.9,29.55,SSW,203,5.0,6.0,52,0.00,,---,0.00,76.00,VWS V14.01,2013-07-22 18:38:00,
2013-07-22 13:40:00,90.3,70.3,29.55,North,0,0.0,6.0,52,0.00,,---,0.00,79.00,VWS V14.01,2013-07-22 18:40:00,
2013-07-22 13:43:00,90.3,70.3,29.55,North,0,5.0,10.0,52,0.00,,---,0.00,345.00,VWS V14.01,2013-07-22 18:43:00,
2013-07-22 13:45:00,90.3,70.9,29.54,North,359,7.0,10.0,53,0.00,,---,0.00,143.00,VWS V14.01,2013-07-22 18:45:00,
2013-07-22 13:48:00,90.1,70.7,29.54,North,356,3.0,7.0,53,0.00,,---,0.00,143.00,VWS V14.01,2013-07-22 18:48:00,
2013-07-22 13:50:00,89.9,70.5,29.54,North,359,3.0,8.0,53,0.00,,---,0.00,496.00,VWS V14.01,2013-07-22 18:50:00,
2013-07-22 13:53:00,90.1,70.1,29.54,North,352,0.0,4.0,52,0.00,,---,0.00,496.00,VWS V14.01,2013-07-22 18:53:00,
2013-07-22 13:55:00,90.3,70.3,29.54,SSE,158,0.0,4.0,52,0.00,,---,0.00,475.00,VWS V14.01,2013-07-22 18:55:00,
2013-07-22 13:58:00,90.5,70.5,29.54,SE,126,2.0,2.0,52,0.00,,---,0.00,280.00,VWS V14.01,2013-07-22 18:58:00,
2013-07-22 14:00:00,91.0,70.4,29.56,NNW,347,0.0,4.0,51,0.00,,---,0.00,333.00,VWS V14.01,2013-07-22 19:00:00,
2013-07-22 14:03:00,91.4,70.7,29.56,WSW,257,6.0,6.0,51,0.00,,---,0.00,422.00,VWS V14.01,2013-07-22 19:03:00,
2013-07-22 14:05:00,91.4,70.2,29.56,NNW,332,2.0,7.0,50,0.00,,---,0.00,384.00,VWS V14.01,2013-07-22 19:05:00,
2013-07-22 14:08:00,91.4,70.2,29.56,SE,126,0.0,2.0,50,0.00,,---,0.00,401.00,VWS V14.01,2013-07-22 19:08:00,
2013-07-22 14:10:00,91.4,69.6,29.56,SE,144,0.0,2.0,49,0.00,,---,0.00,380.00,VWS V14.01,2013-07-22 19:10:00,
2013-07-22 14:14:00,91.6,70.3,29.56,SE,126,0.0,1.0,50,0.00,,---,0.00,348.00,VWS V14.01,2013-07-22 19:14:00,
2013-07-22 14:15:00,91.6,70.3,29.57,SE,143,0.0,1.0,50,0.00,,---,0.00,366.00,VWS V14.01,2013-07-22 19:15:00,
2013-07-22 14:19:00,91.8,69.9,29.57,SSE,155,0.0,0.0,49,0.00,,---,0.00,329.00,VWS V14.01,2013-07-22 19:19:00,
2013-07-22 14:20:00,91.8,69.9,29.57,North,350,0.0,3.0,49,0.00,,---,0.00,322.00,VWS V14.01,2013-07-22 19:20:00,
2013-07-22 14:24:00,91.6,70.3,29.57,North,354,0.0,3.0,50,0.00,,---,0.00,285.00,VWS V14.01,2013-07-22 19:24:00,
2013-07-22 14:25:00,91.6,70.3,29.57,WSW,248,0.0,3.0,50,0.00,,---,0.00,276.00,VWS V14.01,2013-07-22 19:25:00,
2013-07-22 14:29:00,92.1,69.6,29.57,WNW,285,7.0,7.0,48,0.00,,---,0.00,313.00,VWS V14.01,2013-07-22 19:29:00,
2013-07-22 14:30:00,91.8,68.7,29.59,WNW,292,4.0,7.0,47,0.00,,---,0.00,327.00,VWS V14.01,2013-07-22 19:30:00,
2013-07-22 14:34:00,92.1,69.6,29.59,WNW,287,0.0,5.0,48,0.00,,---,0.00,391.00,VWS V14.01,2013-07-22 19:34:00,
2013-07-22 14:35:00,92.1,69.6,29.59,WNW,288,6.0,6.0,48,0.00,,---,0.00,391.00,VWS V14.01,2013-07-22 19:35:00,
2013-07-22 14:40:00,92.1,70.2,29.59,WNW,302,1.0,6.0,49,0.00,,---,0.00,391.00,VWS V14.01,2013-07-22 19:40:00,
2013-07-22 14:45:00,92.9,69.7,29.59,SSW,195,6.0,7.0,47,0.00,,---,0.00,556.00,VWS V14.01,2013-07-22 19:45:00,
2013-07-22 14:50:00,92.7,70.2,29.59,South,189,0.0,5.0,48,0.00,,---,0.00,496.00,VWS V14.01,2013-07-22 19:50:00,
2013-07-22 14:55:00,92.9,69.7,29.59,NW,312,8.0,11.0,47,0.00,,---,0.00,581.00,VWS V14.01,2013-07-22 19:55:00,
2013-07-22 15:00:00,94.0,71.3,29.59,WNW,301,12.0,12.0,48,0.00,,---,0.00,977.00,VWS V14.01,2013-07-22 20:00:00,
2013-07-22 15:05:00,93.6,70.3,29.59,WNW,291,11.0,13.0,47,0.00,,---,0.00,885.00,VWS V14.01,2013-07-22 20:05:00,
2013-07-22 15:10:00,92.5,68.7,29.59,West,264,6.0,16.0,46,0.00,,---,0.00,308.00,VWS V14.01,2013-07-22 20:10:00,
2013-07-22 15:15:00,91.8,69.9,29.57,North,0,6.0,6.0,49,0.00,,---,0.00,238.00,VWS V14.01,2013-07-22 20:15:00,
2013-07-22 15:16:00,91.6,70.3,29.57,NNW,347,6.0,7.0,50,0.00,,---,0.00,227.00,VWS V14.01,2013-07-22 20:16:00,
2013-07-22 15:17:00,91.6,70.3,29.57,NW,323,6.0,7.0,50,0.00,,---,0.00,220.00,VWS V14.01,2013-07-22 20:17:00,
2013-07-22 15:20:00,91.2,70.0,29.57,North,0,14.0,16.0,50,0.00,,---,0.00,192.00,VWS V14.01,2013-07-22 20:20:00,
2013-07-22 15:25:00,91.0,68.6,29.57,NNW,347,13.0,14.0,48,0.00,,---,0.00,144.00,VWS V14.01,2013-07-22 20:25:00,
2013-07-22 15:30:00,90.5,68.8,29.54,North,354,17.0,17.0,49,0.00,,---,0.00,121.00,VWS V14.01,2013-07-22 20:30:00,
2013-07-22 15:35:00,90.3,69.2,29.54,North,356,8.0,18.0,50,0.00,,---,0.00,120.00,VWS V14.01,2013-07-22 20:35:00,
2013-07-22 15:40:00,89.9,69.4,29.54,SSW,202,10.0,12.0,51,0.00,,---,0.00,150.00,VWS V14.01,2013-07-22 20:40:00,
2013-07-22 15:45:00,89.7,69.2,29.52,North,0,10.0,14.0,51,0.00,,---,0.00,209.00,VWS V14.01,2013-07-22 20:45:00,
2013-07-22 15:50:00,89.5,69.6,29.52,North,0,11.0,16.0,52,0.00,,---,0.00,262.00,VWS V14.01,2013-07-22 20:50:00,
2013-07-22 15:55:00,90.3,69.2,29.52,North,0,17.0,24.0,50,0.00,,---,0.00,396.00,VWS V14.01,2013-07-22 20:55:00,
2013-07-22 16:00:00,90.7,66.5,29.51,SW,217,17.0,25.0,45,0.00,,---,0.00,322.00,VWS V14.01,2013-07-22 21:00:00,
2013-07-22 16:05:00,90.3,68.0,29.51,West,280,17.0,27.0,48,0.00,,---,0.00,257.00,VWS V14.01,2013-07-22 21:05:00,
2013-07-22 16:10:00,90.1,67.2,29.51,SW,233,29.0,35.0,47,0.00,,---,0.00,320.00,VWS V14.01,2013-07-22 21:10:00,
2013-07-22 16:15:00,89.9,68.8,29.51,NW,319,19.0,29.0,50,0.00,,---,0.00,234.00,VWS V14.01,2013-07-22 21:15:00,
2013-07-22 16:20:00,89.3,69.4,29.51,West,261,17.0,25.0,52,0.00,,---,0.00,197.00,VWS V14.01,2013-07-22 21:20:00,
2013-07-22 16:25:00,88.6,69.3,29.51,North,350,15.0,27.0,53,0.00,,---,0.00,187.00,VWS V14.01,2013-07-22 21:25:00,
2013-07-22 16:30:00,88.0,69.8,29.53,SSW,205,13.0,29.0,55,0.00,,---,0.00,176.00,VWS V14.01,2013-07-22 21:30:00,
2013-07-22 16:31:00,88.0,69.8,29.53,WSW,243,12.0,13.0,55,0.00,,---,0.00,176.00,VWS V14.01,2013-07-22 21:31:00,
2013-07-22 16:35:00,87.8,69.6,29.53,SW,215,21.0,26.0,55,0.00,,---,0.00,155.00,VWS V14.01,2013-07-22 21:35:00,
2013-07-22 16:36:00,87.8,69.1,29.53,WSW,241,20.0,24.0,54,0.00,,---,0.00,155.00,VWS V14.01,2013-07-22 21:36:00,
2013-07-22 16:40:00,87.6,69.4,29.53,WSW,254,17.0,25.0,55,0.00,,---,0.00,157.00,VWS V14.01,2013-07-22 21:40:00,
2013-07-22 16:41:00,87.6,69.4,29.53,WSW,243,17.0,17.0,55,0.00,,---,0.00,155.00,VWS V14.01,2013-07-22 21:41:00,
2013-07-22 16:46:00,87.4,69.3,29.55,West,268,10.0,17.0,55,0.00,,---,0.00,167.00,VWS V14.01,2013-07-22 21:46:00,
2013-07-22 16:50:00,87.2,69.1,29.55,West,264,12.0,22.0,55,0.00,,---,0.00,195.00,VWS V14.01,2013-07-22 21:50:00,
2013-07-22 16:51:00,87.2,69.1,29.55,WSW,244,16.0,24.0,55,0.00,,---,0.00,211.00,VWS V14.01,2013-07-22 21:51:00,
2013-07-22 16:55:00,87.2,68.5,29.55,NW,320,17.0,24.0,54,0.00,,---,0.00,197.00,VWS V14.01,2013-07-22 21:55:00,
2013-07-22 16:56:00,87.4,68.7,29.55,SW,226,17.0,19.0,54,0.00,,---,0.00,183.00,VWS V14.01,2013-07-22 21:56:00,
2013-07-22 17:00:00,87.2,68.0,29.54,SSW,205,12.0,22.0,53,0.00,,---,0.00,134.00,VWS V14.01,2013-07-22 22:00:00,
2013-07-22 17:01:00,87.2,68.5,29.54,NNW,343,18.0,18.0,54,0.00,,---,0.00,128.00,VWS V14.01,2013-07-22 22:01:00,
2013-07-22 17:05:00,87.2,67.4,29.54,NNW,336,18.0,28.0,52,0.00,,---,0.00,121.00,VWS V14.01,2013-07-22 22:05:00,
2013-07-22 17:06:00,87.0,67.8,29.54,SW,219,17.0,22.0,53,0.00,,---,0.00,118.00,VWS V14.01,2013-07-22 22:06:00,
2013-07-22 17:10:00,87.0,67.3,29.54,North,353,12.0,28.0,52,0.00,,---,0.00,102.00,VWS V14.01,2013-07-22 22:10:00,
2013-07-22 17:11:00,87.0,67.3,29.54,SW,227,11.0,20.0,52,0.00,,---,0.00,100.00,VWS V14.01,2013-07-22 22:11:00,
2013-07-22 17:15:00,87.2,66.9,29.54,WNW,298,19.0,28.0,51,0.00,,---,0.00,104.00,VWS V14.01,2013-07-22 22:15:00,
2013-07-22 17:16:00,87.2,66.9,29.54,WNW,294,15.0,20.0,51,0.00,,---,0.00,109.00,VWS V14.01,2013-07-22 22:16:00,
2013-07-22 17:20:00,87.0,67.8,29.54,SW,219,10.0,20.0,53,0.00,,---,0.00,199.00,VWS V14.01,2013-07-22 22:20:00,
2013-07-22 17:22:00,87.0,67.8,29.54,NW,312,14.0,20.0,53,0.00,,---,0.00,297.00,VWS V14.01,2013-07-22 22:22:00,
2013-07-22 17:25:00,87.0,68.4,29.54,West,261,18.0,20.0,54,0.00,,---,0.00,255.00,VWS V14.01,2013-07-22 22:25:00,
2013-07-22 17:27:00,87.0,68.4,29.54,West,270,17.0,18.0,54,0.00,,---,0.00,225.00,VWS V14.01,2013-07-22 22:27:00,
2013-07-22 17:30:00,87.0,68.4,29.53,SSW,212,6.0,18.0,54,0.00,,---,0.00,216.00,VWS V14.01,2013-07-22 22:30:00,
2013-07-22 17:32:00,87.2,69.1,29.53,South,184,13.0,13.0,55,0.00,,---,0.00,216.00,VWS V14.01,2013-07-22 22:32:00,
2013-07-22 17:35:00,87.2,68.0,29.53,SSW,210,17.0,17.0,53,0.00,,---,0.00,220.00,VWS V14.01,2013-07-22 22:35:00,
2013-07-22 17:37:00,87.2,67.4,29.53,NW,309,10.0,18.0,52,0.00,,---,0.00,187.00,VWS V14.01,2013-07-22 22:37:00,
2013-07-22 17:40:00,87.2,68.0,29.53,WSW,237,10.0,18.0,53,0.00,,---,0.00,232.00,VWS V14.01,2013-07-22 22:40:00,
2013-07-22 17:42:00,87.2,68.0,29.53,SW,220,13.0,14.0,53,0.00,,---,0.00,218.00,VWS V14.01,2013-07-22 22:42:00,
2013-07-22 17:45:00,87.2,68.5,29.54,North,349,11.0,14.0,54,0.00,,---,0.00,178.00,VWS V14.01,2013-07-22 22:45:00,
2013-07-22 17:47:00,87.0,67.8,29.54,SSW,209,10.0,12.0,53,0.00,,---,0.00,225.00,VWS V14.01,2013-07-22 22:47:00,
2013-07-22 17:50:00,87.2,68.5,29.54,WNW,284,7.0,14.0,54,0.00,,---,0.00,507.00,VWS V14.01,2013-07-22 22:50:00,
2013-07-22 17:52:00,87.4,69.3,29.54,North,354,14.0,14.0,55,0.00,,---,0.00,507.00,VWS V14.01,2013-07-22 22:52:00,
2013-07-22 17:55:00,87.6,68.4,29.54,WSW,258,12.0,17.0,53,0.00,,---,0.00,493.00,VWS V14.01,2013-07-22 22:55:00,
2013-07-22 17:57:00,87.8,68.6,29.54,SW,234,8.0,16.0,53,0.00,,---,0.00,538.00,VWS V14.01,2013-07-22 22:57:00,
2013-07-22 18:00:00,87.8,69.1,29.54,West,267,12.0,16.0,54,0.00,,---,0.00,533.00,VWS V14.01,2013-07-22 23:00:00,
2013-07-22 18:02:00,88.0,69.3,29.54,North,349,11.0,14.0,54,0.00,,---,0.00,450.00,VWS V14.01,2013-07-22 23:02:00,
2013-07-22 18:05:00,88.0,68.7,29.54,North,353,14.0,14.0,53,0.00,,---,0.00,450.00,VWS V14.01,2013-07-22 23:05:00,
2013-07-22 18:07:00,88.0,68.7,29.54,West,272,10.0,14.0,53,0.00,,---,0.00,442.00,VWS V14.01,2013-07-22 23:07:00,
2013-07-22 18:10:00,87.8,69.1,29.54,North,350,13.0,14.0,54,0.00,,---,0.00,109.00,VWS V14.01,2013-07-22 23:10:00,
2013-07-22 18:12:00,87.6,68.4,29.54,North,353,14.0,14.0,53,0.00,,---,0.00,134.00,VWS V14.01,2013-07-22 23:12:00,
2013-07-22 18:15:00,87.4,68.7,29.53,WSW,246,16.0,16.0,54,0.00,,---,0.00,165.00,VWS V14.01,2013-07-22 23:15:00,
2013-07-22 18:18:00,87.2,69.1,29.53,SW,222,12.0,16.0,55,0.00,,---,0.00,223.00,VWS V14.01,2013-07-22 23:18:00,
2013-07-22 18:20:00,87.2,69.1,29.53,NNW,342,13.0,16.0,55,0.00,,---,0.00,201.00,VWS V14.01,2013-07-22 23:20:00,
2013-07-22 18:23:00,87.2,69.1,29.53,WSW,241,11.0,13.0,55,0.00,,---,0.00,201.00,VWS V14.01,2013-07-22 23:23:00,
2013-07-22 18:25:00,87.2,69.6,29.53,SW,226,8.0,13.0,56,0.00,,---,0.00,176.00,VWS V14.01,2013-07-22 23:25:00,
2013-07-22 18:28:00,87.2,69.6,29.53,WNW,282,6.0,10.0,56,0.00,,---,0.00,158.00,VWS V14.01,2013-07-22 23:28:00,
2013-07-22 18:30:00,87.0,68.9,29.54,SW,232,7.0,10.0,55,0.00,,---,0.00,162.00,VWS V14.01,2013-07-22 23:30:00,
2013-07-22 18:33:00,87.0,69.4,29.54,WSW,251,11.0,11.0,56,0.00,,---,0.00,155.00,VWS V14.01,2013-07-22 23:33:00,
2013-07-22 18:35:00,87.0,69.9,29.54,North,0,12.0,12.0,57,0.00,,---,0.00,150.00,VWS V14.01,2013-07-22 23:35:00,
2013-07-22 18:38:00,87.0,69.9,29.54,West,277,8.0,14.0,57,0.00,,---,0.00,181.00,VWS V14.01,2013-07-22 23:38:00,
2013-07-22 18:40:00,87.0,70.4,29.54,NNW,344,12.0,16.0,58,0.00,,---,0.00,146.00,VWS V14.01,2013-07-22 23:40:00,
2013-07-22 18:43:00,86.7,70.2,29.54,WSW,239,17.0,19.0,58,0.00,,---,0.00,155.00,VWS V14.01,2013-07-22 23:43:00,
2013-07-22 18:45:00,86.5,69.5,29.52,WSW,246,12.0,19.0,57,0.00,,---,0.00,164.00,VWS V14.01,2013-07-22 23:45:00,
2013-07-22 18:48:00,86.5,69.5,29.52,SW,227,18.0,18.0,57,0.00,,---,0.00,162.00,VWS V14.01,2013-07-22 23:48:00,
2013-07-22 18:50:00,86.5,69.5,29.52,North,359,12.0,19.0,57,0.00,,---,0.00,384.00,VWS V14.01,2013-07-22 23:50:00,
2013-07-22 18:53:00,86.7,69.7,29.52,West,260,11.0,13.0,57,0.00,,---,0.00,380.00,VWS V14.01,2013-07-22 23:53:00,
2013-07-22 18:55:00,87.0,69.9,29.52,WNW,289,7.0,13.0,57,0.00,,---,0.00,289.00,VWS V14.01,2013-07-22 23:55:00,
2013-07-22 18:58:00,87.0,69.9,29.52,NNW,342,8.0,10.0,57,0.00,,---,0.00,362.00,VWS V14.01,2013-07-22 23:58:00,
2013-07-22 19:00:00,87.2,69.6,29.53,SSW,212,13.0,13.0,56,0.00,,---,0.00,350.00,VWS V14.01,2013-07-23 00:00:00,
2013-07-22 19:03:00,87.2,68.5,29.53,West,281,10.0,20.0,54,0.00,,---,0.00,370.00,VWS V14.01,2013-07-23 00:03:00,
2013-07-22 19:05:00,87.4,69.3,29.53,North,354,8.0,20.0,55,0.00,,---,0.00,354.00,VWS V14.01,2013-07-23 00:05:00,
2013-07-22 19:08:00,87.6,68.4,29.53,WNW,282,16.0,18.0,53,0.00,,---,0.00,310.00,VWS V14.01,2013-07-23 00:08:00,
2013-07-22 19:10:00,87.6,67.8,29.53,SW,230,13.0,19.0,52,0.00,,---,0.00,296.00,VWS V14.01,2013-07-23 00:10:00,
2013-07-22 19:13:00,87.6,67.8,29.53,WNW,292,21.0,21.0,52,0.00,,---,0.00,271.00,VWS V14.01,2013-07-23 00:13:00,
2013-07-22 19:15:00,87.4,67.1,29.52,NNW,339,16.0,21.0,51,0.00,,---,0.00,239.00,VWS V14.01,2013-07-23 00:15:00,
2013-07-22 19:18:00,87.4,67.1,29.52,West,261,6.0,16.0,51,0.00,,---,0.00,245.00,VWS V14.01,2013-07-23 00:18:00,
2013-07-22 19:20:00,87.4,67.6,29.52,SW,233,12.0,16.0,52,0.00,,---,0.00,245.00,VWS V14.01,2013-07-23 00:20:00,
2013-07-22 19:24:00,87.2,66.9,29.52,NNW,346,9.0,13.0,51,0.00,,---,0.00,230.00,VWS V14.01,2013-07-23 00:24:00,
2013-07-22 19:25:00,87.2,66.9,29.52,WNW,292,6.0,13.0,51,0.00,,---,0.00,100.00,VWS V14.01,2013-07-23 00:25:00,
2013-07-22 19:29:00,87.0,66.7,29.52,NW,304,7.0,12.0,51,0.00,,---,0.00,93.00,VWS V14.01,2013-07-23 00:29:00,
2013-07-22 19:30:00,86.5,66.8,29.52,WSW,253,11.0,13.0,52,0.00,,---,0.00,88.00,VWS V14.01,2013-07-23 00:30:00,
2013-07-22 19:34:00,86.1,67.0,29.52,North,350,10.0,13.0,53,0.00,,---,0.00,84.00,VWS V14.01,2013-07-23 00:34:00,
2013-07-22 19:35:00,86.1,67.0,29.52,SSW,196,11.0,13.0,53,0.00,,---,0.00,143.00,VWS V14.01,2013-07-23 00:35:00,
2013-07-22 19:39:00,85.7,67.2,29.52,NNW,344,13.0,14.0,54,0.00,,---,0.00,83.00,VWS V14.01,2013-07-23 00:39:00,
2013-07-22 19:40:00,85.7,67.2,29.52,West,260,11.0,14.0,54,0.00,,---,0.00,116.00,VWS V14.01,2013-07-23 00:40:00,
2013-07-22 19:44:00,85.5,67.5,29.52,SW,223,8.0,12.0,55,0.00,,---,0.00,188.00,VWS V14.01,2013-07-23 00:44:00,
2013-07-22 19:45:00,85.5,67.5,29.52,SSW,213,3.0,12.0,55,0.00,,---,0.00,190.00,VWS V14.01,2013-07-23 00:45:00,
2013-07-22 19:49:00,85.5,66.4,29.52,WNW,289,6.0,8.0,53,0.00,,---,0.00,179.00,VWS V14.01,2013-07-23 00:49:00,
2013-07-22 19:50:00,85.5,67.0,29.52,NNW,336,6.0,8.0,54,0.00,,---,0.00,176.00,VWS V14.01,2013-07-23 00:50:00,
2013-07-22 19:54:00,85.3,66.2,29.52,NW,311,6.0,11.0,53,0.00,,---,0.00,90.00,VWS V14.01,2013-07-23 00:54:00,
2013-07-22 19:55:00,85.3,66.2,29.52,North,0,6.0,11.0,53,0.00,,---,0.00,91.00,VWS V14.01,2013-07-23 00:55:00,
2013-07-22 19:59:00,85.1,66.1,29.52,North,353,7.0,10.0,53,0.00,,---,0.00,67.00,VWS V14.01,2013-07-23 00:59:00,
2013-07-22 20:00:00,85.1,65.5,29.53,North,353,6.0,10.0,52,0.00,,---,0.00,62.00,VWS V14.01,2013-07-23 01:00:00,
2013-07-22 20:04:00,84.7,65.1,29.53,North,0,9.0,13.0,52,0.00,,---,0.00,51.00,VWS V14.01,2013-07-23 01:04:00,
2013-07-22 20:05:00,84.5,65.5,29.53,NNW,332,6.0,13.0,53,0.00,,---,0.00,51.00,VWS V14.01,2013-07-23 01:05:00,
2013-07-22 20:09:00,84.3,64.8,29.53,WSW,258,10.0,10.0,52,0.00,,---,0.00,28.00,VWS V14.01,2013-07-23 01:09:00,
2013-07-22 20:10:00,84.1,64.6,29.53,NNW,333,8.0,10.0,52,0.00,,---,0.00,26.00,VWS V14.01,2013-07-23 01:10:00,
2013-07-22 20:15:00,84.0,65.1,29.53,WSW,237,10.0,12.0,53,0.00,,---,0.00,23.00,VWS V14.01,2013-07-23 01:15:00,
2013-07-22 20:20:00,83.4,65.6,29.53,North,359,6.0,8.0,55,0.00,,---,0.00,21.00,VWS V14.01,2013-07-23 01:20:00,
2013-07-22 20:25:00,82.8,65.5,29.53,SW,220,6.0,7.0,56,0.00,,---,0.00,14.00,VWS V14.01,2013-07-23 01:25:00,
2013-07-22 20:30:00,82.4,66.7,29.53,North,0,7.0,7.0,59,0.00,,---,0.00,12.00,VWS V14.01,2013-07-23 01:30:00,
2013-07-22 20:35:00,81.6,65.9,29.53,NW,311,6.0,8.0,59,0.00,,---,0.00,9.00,VWS V14.01,2013-07-23 01:35:00,
2013-07-22 20:40:00,81.1,65.9,29.53,NNW,346,6.0,8.0,60,0.00,,---,0.00,9.00,VWS V14.01,2013-07-23 01:40:00,
2013-07-22 20:45:00,80.7,66.0,29.53,NW,313,8.0,9.0,61,0.00,,---,0.00,7.00,VWS V14.01,2013-07-23 01:45:00,
2013-07-22 20:50:00,79.9,65.7,29.53,North,0,8.0,11.0,62,0.00,,---,0.00,5.00,VWS V14.01,2013-07-23 01:50:00,
2013-07-22 20:55:00,79.4,66.2,29.53,North,0,9.0,13.0,64,0.00,,---,0.00,0.00,VWS V14.01,2013-07-23 01:55:00,
2013-07-22 21:00:00,79.2,66.0,29.54,WNW,295,6.0,11.0,64,0.00,,---,0.00,0.00,VWS V14.01,2013-07-23 02:00:00,
2013-07-22 21:05:00,79.0,66.2,29.54,NW,325,8.0,9.0,65,0.00,,---,0.00,0.00,VWS V14.01,2013-07-23 02:05:00,
2013-07-22 21:10:00,78.8,66.5,29.54,NNW,329,8.0,11.0,66,0.00,,---,0.00,0.00,VWS V14.01,2013-07-23 02:10:00,
2013-07-22 21:15:00,78.8,66.5,29.54,SW,219,11.0,13.0,66,0.00,,---,0.00,0.00,VWS V14.01,2013-07-23 02:15:00,
2013-07-22 21:16:00,78.8,66.5,29.54,NNW,337,11.0,11.0,66,0.00,,---,0.00,0.00,VWS V14.01,2013-07-23 02:16:00,
2013-07-22 21:20:00,78.8,66.9,29.54,SW,222,9.0,14.0,67,0.00,,---,0.00,0.00,VWS V14.01,2013-07-23 02:20:00,
2013-07-22 21:21:00,78.8,66.9,29.54,North,359,9.0,12.0,67,0.00,,---,0.00,0.00,VWS V14.01,2013-07-23 02:21:00,
2013-07-22 21:25:00,78.5,67.1,29.54,WNW,289,8.0,12.0,68,0.00,,---,0.00,0.00,VWS V14.01,2013-07-23 02:25:00,
2013-07-22 21:26:00,78.5,67.1,29.54,North,0,8.0,13.0,68,0.00,,---,0.00,0.00,VWS V14.01,2013-07-23 02:26:00,
2013-07-22 21:30:00,78.1,67.1,29.55,SW,234,12.0,14.0,69,0.00,,---,0.00,0.00,VWS V14.01,2013-07-23 02:30:00,
2013-07-22 21:31:00,78.1,67.1,29.55,North,350,11.0,13.0,69,0.00,,---,0.00,0.00,VWS V14.01,2013-07-23 02:31:00,
2013-07-22 21:35:00,78.5,67.1,29.55,NW,309,7.0,16.0,68,0.00,,---,0.00,0.00,VWS V14.01,2013-07-23 02:35:00,
2013-07-22 21:36:00,78.5,67.1,29.55,WSW,247,9.0,10.0,68,0.00,,---,0.00,0.00,VWS V14.01,2013-07-23 02:36:00,
2013-07-22 21:40:00,78.8,66.9,29.55,West,263,8.0,13.0,67,0.00,,---,0.00,0.00,VWS V14.01,2013-07-23 02:40:00,
2013-07-22 21:41:00,78.8,66.9,29.55,NW,326,7.0,9.0,67,0.00,,---,0.00,0.00,VWS V14.01,2013-07-23 02:41:00,
2013-07-22 21:45:00,78.8,66.9,29.55,NW,320,12.0,12.0,67,0.00,,---,0.00,0.00,VWS V14.01,2013-07-23 02:45:00,
2013-07-22 21:46:00,78.6,66.7,29.55,SW,219,12.0,12.0,67,0.00,,---,0.00,0.00,VWS V14.01,2013-07-23 02:46:00,
2013-07-22 21:50:00,78.6,67.2,29.55,West,281,10.0,14.0,68,0.00,,---,0.00,0.00,VWS V14.01,2013-07-23 02:50:00,
2013-07-22 21:51:00,78.6,67.2,29.55,North,350,13.0,16.0,68,0.00,,---,0.00,0.00,VWS V14.01,2013-07-23 02:51:00,
2013-07-22 21:55:00,78.8,66.9,29.55,WNW,292,13.0,16.0,67,0.00,,---,0.00,0.00,VWS V14.01,2013-07-23 02:55:00,
2013-07-22 21:56:00,78.8,66.9,29.55,North,0,8.0,13.0,67,0.00,,---,0.00,0.00,VWS V14.01,2013-07-23 02:56:00,
2013-07-22 22:00:00,78.3,66.9,29.55,NNW,332,11.0,13.0,68,0.00,,---,0.00,0.00,VWS V14.01,2013-07-23 03:00:00,
2013-07-22 22:01:00,78.1,67.1,29.55,NNW,340,10.0,13.0,69,0.00,,---,0.00,0.00,VWS V14.01,2013-07-23 03:01:00,
2013-07-22 22:05:00,77.9,66.9,29.55,North,350,12.0,13.0,69,0.00,,---,0.00,0.00,VWS V14.01,2013-07-23 03:05:00,
2013-07-22 22:06:00,77.7,66.7,29.55,NW,319,12.0,14.0,69,0.00,,---,0.00,0.00,VWS V14.01,2013-07-23 03:06:00,
2013-07-22 22:10:00,77.6,67.1,29.55,North,0,8.0,14.0,70,0.00,,---,0.00,0.00,VWS V14.01,2013-07-23 03:10:00,
2013-07-22 22:11:00,77.6,67.1,29.55,NNW,347,12.0,13.0,70,0.00,,---,0.00,0.00,VWS V14.01,2013-07-23 03:11:00,
2013-07-22 22:15:00,77.4,66.9,29.56,North,357,14.0,14.0,70,0.00,,---,0.00,0.00,VWS V14.01,2013-07-23 03:15:00,
2013-07-22 22:17:00,77.2,67.1,29.56,North,356,12.0,14.0,71,0.00,,---,0.00,0.00,VWS V14.01,2013-07-23 03:17:00,
2013-07-22 22:20:00,76.5,66.8,29.56,North,0,12.0,14.0,72,0.00,,---,0.00,0.00,VWS V14.01,2013-07-23 03:20:00,
2013-07-22 22:22:00,76.3,67.0,29.56,North,352,13.0,13.0,73,0.00,,---,0.00,0.00,VWS V14.01,2013-07-23 03:22:00,
2013-07-22 22:25:00,75.8,67.3,29.56,North,0,10.0,13.0,75,0.00,,---,0.00,0.00,VWS V14.01,2013-07-23 03:25:00,
2013-07-22 22:27:00,75.6,67.1,29.56,North,359,7.0,11.0,75,0.00,,---,0.00,0.00,VWS V14.01,2013-07-23 03:27:00,
2013-07-22 22:30:00,75.4,66.9,29.56,North,350,9.0,11.0,75,0.00,,---,0.00,0.00,VWS V14.01,2013-07-23 03:30:00,
2013-07-22 22:32:00,75.4,67.3,29.56,North,350,11.0,11.0,76,0.00,,---,0.00,0.00,VWS V14.01,2013-07-23 03:32:00,
2013-07-22 22:35:00,75.3,67.2,29.56,NNW,337,12.0,12.0,76,0.00,,---,0.00,0.00,VWS V14.01,2013-07-23 03:35:00,
2013-07-22 22:37:00,75.3,67.2,29.56,North,357,10.0,12.0,76,0.00,,---,0.00,0.00,VWS V14.01,2013-07-23 03:37:00,
2013-07-22 22:40:00,75.3,67.6,29.56,NNW,347,12.0,13.0,77,0.00,,---,0.00,0.00,VWS V14.01,2013-07-23 03:40:00,
2013-07-22 22:42:00,75.3,67.2,29.56,NNW,347,8.0,12.0,76,0.00,,---,0.00,0.00,VWS V14.01,2013-07-23 03:42:00,
2013-07-22 22:45:00,75.4,67.3,29.57,North,0,8.0,12.0,76,0.00,,---,0.00,0.00,VWS V14.01,2013-07-23 03:45:00,
2013-07-22 22:47:00,75.8,67.3,29.57,WNW,285,13.0,13.0,75,0.00,,---,0.00,0.00,VWS V14.01,2013-07-23 03:47:00,
2013-07-22 22:50:00,76.0,67.5,29.57,NNW,344,12.0,14.0,75,0.00,,---,0.00,0.00,VWS V14.01,2013-07-23 03:50:00,
2013-07-22 22:52:00,76.1,67.6,29.57,North,0,8.0,16.0,75,0.00,,---,0.00,0.00,VWS V14.01,2013-07-23 03:52:00,
2013-07-22 22:55:00,76.1,67.2,29.57,NNW,346,14.0,16.0,74,0.00,,---,0.00,0.00,VWS V14.01,2013-07-23 03:55:00,
2013-07-22 22:57:00,76.3,67.4,29.57,North,0,10.0,14.0,74,0.00,,---,0.00,0.00,VWS V14.01,2013-07-23 03:57:00,
2013-07-22 23:00:00,76.3,67.4,29.57,North,0,13.0,16.0,74,0.00,,---,0.00,0.00,VWS V14.01,2013-07-23 04:00:00,
2013-07-22 23:01:00,76.3,67.4,29.57,South,189,11.0,14.0,74,0.00,,---,0.00,0.00,VWS V14.01,2013-07-23 04:01:00,
2013-07-22 23:02:00,76.3,67.4,29.57,North,356,14.0,14.0,74,0.00,,---,0.00,0.00,VWS V14.01,2013-07-23 04:02:00,
2013-07-22 23:05:00,76.1,67.2,29.57,NNW,344,10.0,14.0,74,0.00,,---,0.00,0.00,VWS V14.01,2013-07-23 04:05:00,
2013-07-22 23:07:00,76.1,67.2,29.57,NNW,346,11.0,14.0,74,0.00,,---,0.00,0.00,VWS V14.01,2013-07-23 04:07:00,
2013-07-22 23:10:00,76.3,67.0,29.57,NW,312,13.0,16.0,73,0.00,,---,0.00,0.00,VWS V14.01,2013-07-23 04:10:00,
2013-07-22 23:12:00,76.3,67.0,29.57,North,0,12.0,16.0,73,0.00,,---,0.00,0.00,VWS V14.01,2013-07-23 04:12:00,
2013-07-22 23:15:00,76.5,66.8,29.57,NNW,346,16.0,16.0,72,0.00,,---,0.00,0.00,VWS V14.01,2013-07-23 04:15:00,
2013-07-22 23:17:00,76.7,67.0,29.57,North,0,13.0,17.0,72,0.00,,---,0.00,0.00,VWS V14.01,2013-07-23 04:17:00,
2013-07-22 23:20:00,76.7,66.6,29.57,NNW,347,12.0,17.0,71,0.00,,---,0.00,0.00,VWS V14.01,2013-07-23 04:20:00,
2013-07-22 23:22:00,76.7,66.6,29.57,North,0,13.0,17.0,71,0.00,,---,0.00,0.00,VWS V14.01,2013-07-23 04:22:00,
2013-07-22 23:25:00,76.8,66.3,29.57,North,354,13.0,18.0,70,0.00,,---,0.00,0.00,VWS V14.01,2013-07-23 04:25:00,
2013-07-22 23:27:00,76.8,66.3,29.57,North,356,12.0,16.0,70,0.00,,---,0.00,0.00,VWS V14.01,2013-07-23 04:27:00,
2013-07-22 23:30:00,77.0,66.1,29.57,North,354,11.0,16.0,69,0.00,,---,0.00,0.00,VWS V14.01,2013-07-23 04:30:00,
2013-07-22 23:33:00,76.8,65.9,29.57,North,352,10.0,12.0,69,0.00,,---,0.00,0.00,VWS V14.01,2013-07-23 04:33:00,
2013-07-22 23:35:00,76.8,66.3,29.57,North,0,10.0,12.0,70,0.00,,---,0.00,0.00,VWS V14.01,2013-07-23 04:35:00,
2013-07-22 23:38:00,76.7,66.2,29.57,North,352,12.0,12.0,70,0.00,,---,0.00,0.00,VWS V14.01,2013-07-23 04:38:00,
2013-07-22 23:40:00,76.5,66.4,29.57,North,356,10.0,12.0,71,0.00,,---,0.00,0.00,VWS V14.01,2013-07-23 04:40:00,
2013-07-22 23:43:00,76.5,66.4,29.57,North,350,7.0,13.0,71,0.00,,---,0.00,0.00,VWS V14.01,2013-07-23 04:43:00,
2013-07-22 23:45:00,76.5,66.4,29.57,NW,304,8.0,13.0,71,0.00,,---,0.00,0.00,VWS V14.01,2013-07-23 04:45:00,
2013-07-22 23:48:00,76.3,66.2,29.57,North,0,8.0,9.0,71,0.00,,---,0.00,0.00,VWS V14.01,2013-07-23 04:48:00,
2013-07-22 23:50:00,76.0,66.3,29.57,North,357,7.0,9.0,72,0.00,,---,0.00,0.00,VWS V14.01,2013-07-23 04:50:00,
2013-07-22 23:53:00,75.8,66.5,29.57,North,0,6.0,7.0,73,0.00,,---,0.00,0.00,VWS V14.01,2013-07-23 04:53:00,
2013-07-22 23:55:00,75.6,66.3,29.57,North,354,5.0,7.0,73,0.00,,---,0.00,0.00,VWS V14.01,2013-07-23 04:55:00,
2013-07-22 23:58:00,75.4,66.2,29.57,North,0,6.0,7.0,73,0.00,,---,0.00,0.00,VWS V14.01,2013-07-23 04:58:00,